CAPE
0 0 0 0 0 0 0 0 0 0 0 0 0 0 0 0 0 0 0 0 0 0 0 0 0 0 0 0 0 0 0 0 0 0 0 0 1 0 4 13 7 49 437 647 327 503 800 582 866
0 0 0 0 0 0 0 0 0 0 0 0 0 0 0 0 0 0 0 0 0 0 0 0 0 0 0 0 0 0 0 0 0 0 0 0 0 0 1 5 11 7 35 427 399 392 600 860 701
0 0 0 0 0 0 0 0 0 0 0 0 0 0 0 0 0 0 0 0 0 0 0 0 0 0 0 0 0 0 0 0 0 0 0 0 0 0 0 1 10 10 8 51 312 290 455 692 590
0 0 0 0 0 0 0 0 0 0 0 0 0 0 0 0 0 0 0 0 0 0 0 0 0 0 0 0 0 0 0 0 0 0 0 0 0 0 0 1 1 10 13 9 266 214 262 390 530
0 0 0 0 0 0 0 0 0 0 0 0 0 0 0 0 0 0 0 0 0 0 0 0 0 0 0 0 0 0 0 0 0 0 0 0 0 0 0 0 0 5 10 15 9 212 234 308 415
0 0 0 0 0 0 0 0 0 0 0 0 0 0 0 0 0 0 0 0 0 0 0 0 0 0 0 0 0 0 0 0 0 0 0 0 0 0 0 0 0 0 8 13 12 8 273 276 338
0 0 0 0 0 0 0 0 0 0 0 0 0 0 0 0 0 0 0 0 0 0 0 0 0 0 0 0 0 0 0 0 0 0 0 0 0 0 0 0 0 0 3 8 11 9 9 347 325
0 0 0 0 0 0 0 0 0 0 0 0 0 0 0 0 0 0 0 0 0 0 0 0 0 0 0 0 0 0 0 0 0 0 0 0 0 0 0 0 0 0 0 3 13 8 8 6 339
0 0 0 0 0 0 0 0 0 0 0 0 0 0 0 0 0 0 0 0 0 0 0 0 0 0 0 0 0 0 0 0 0 0 0 0 0 0 0 0 0 0 0 0 1 8 8 0 133
0 0 0 0 0 0 0 0 0 0 0 0 0 0 0 0 0 0 0 0 0 0 0 0 0 0 0 0 0 0 0 0 0 0 0 0 0 0 0 0 0 0 0 0 0 1 7 2 41
0 0 0 0 0 0 0 0 0 0 0 0 0 0 0 0 0 0 0 0 0 0 0 0 0 0 0 0 0 0 0 0 0 0 0 0 0 0 0 0 0 0 0 0 0 0 4 4 0
0 0 0 0 0 0 0 0 0 0 0 0 0 0 0 0 0 0 0 0 0 0 0 0 0 0 0 0 0 0 0 0 0 0 0 0 0 0 0 0 0 0 0 0 0 0 2 2 3
0 0 0 0 0 0 0 0 0 0 0 0 0 0 0 0 0 0 0 0 0 0 0 0 0 0 0 0 0 0 0 0 0 0 0 0 0 0 0 0 0 0 0 0 0 0 0 2 3
0 0 0 0 0 0 0 0 0 0 0 0 0 0 0 0 0 0 0 0 0 0 0 0 0 0 0 0 0 0 0 0 0 0 0 0 0 0 0 0 0 0 0 0 0 0 0 3 0
0 0 0 0 0 0 0 0 0 0 0 0 0 0 0 0 0 0 0 0 0 0 0 0 0 0 0 0 0 0 0 0 0 0 0 0 0 0 0 0 0 0 0 0 0 0 0 1 1
0 0 0 0 0 0 0 0 0 0 0 0 0 0 0 0 0 0 0 0 0 0 0 0 0 0 0 0 0 0 0 0 0 0 0 0 0 0 0 0 0 0 0 0 0 0 0 1 3
0 0 0 0 0 0 0 0 0 0 0 0 0 0 0 0 0 0 0 0 0 0 0 0 0 0 0 0 0 0 0 0 0 0 0 0 0 0 0 0 0 0 0 0 0 0 0 0 4
0 0 0 0 0 0 0 0 0 0 0 0 0 0 0 0 0 0 0 0 0 0 0 0 0 0 0 0 0 0 0 0 0 0 0 0 0 0 0 0 0 0 0 0 0 0 0 0 0
0 0 0 0 0 0 0 0 0 0 0 0 0 0 0 0 0 0 0 0 0 0 0 0 0 0 0 0 0 0 0 0 0 0 0 0 0 0 0 0 0 0 0 0 0 0 0 0 1
0 0 0 0 0 0 0 0 0 0 0 0 0 0 0 0 0 0 0 0 0 0 0 0 0 0 0 0 0 0 0 0 0 0 0 0 0 0 0 0 0 0 0 0 0 0 0 0 0
0 0 0 0 0 0 0 0 0 0 0 0 0 0 0 0 0 0 0 0 0 0 0 0 0 0 0 0 0 0 0 0 0 0 0 0 0 0 0 0 0 0 0 0 0 0 0 0 0
0 0 0 0 0 0 0 0 0 0 0 0 0 0 0 0 0 0 0 0 0 0 0 0 0 0 0 0 0 0 0 0 0 0 0 0 0 0 0 0 0 0 0 0 0 0 0 0 0
0 0 0 0 0 0 0 0 0 0 0 0 0 0 0 0 0 0 0 0 0 0 0 0 0 0 0 0 0 0 0 0 0 0 0 0 0 0 0 0 0 0 0 0 0 0 0 0 0
0 0 0 0 0 0 0 0 0 0 0 0 0 0 0 0 0 0 0 0 0 0 0 0 0 0 0 0 0 0 0 0 0 0 0 0 0 0 0 0 0 0 0 0 0 0 0 0 0
0 0 0 0 0 0 0 0 0 0 0 0 0 0 0 0 0 0 0 0 0 0 0 0 0 0 0 0 0 0 0 0 0 0 0 0 0 0 0 0 0 0 0 0 0 0 0 0 0
0 0 0 0 0 0 0 0 0 0 0 0 0 0 0 0 0 0 0 0 0 0 0 0 0 0 0 0 0 0 0 0 0 0 0 0 0 0 0 0 0 0 0 0 0 0 0 0 0
0 0 0 0 0 0 0 0 0 0 0 0 0 0 0 0 0 0 0 0 0 0 0 0 0 0 0 0 0 0 0 0 0 0 0 0 0 0 0 0 0 0 0 0 0 0 0 0 0
0 0 0 0 0 0 0 0 0 0 0 0 0 0 0 0 0 0 0 0 0 0 0 0 0 0 0 0 0 0 0 0 0 0 0 0 0 0 0 0 0 0 0 0 0 0 0 0 0
0 0 0 0 0 0 0 0 0 0 0 0 0 0 0 0 0 0 0 0 0 0 0 0 0 0 0 0 0 0 0 0 0 0 0 0 0 0 0 0 0 0 0 0 0 0 0 0 0
0 0 0 0 0 0 0 0 0 0 0 0 0 0 0 0 0 0 0 0 0 0 0 0 0 0 0 0 0 0 0 0 0 0 0 0 0 0 0 0 0 0 0 0 0 0 0 0 0
CIN
0 0 0 0 0 0 0 0 0 0 0 0 0 0 0 0 0 0 0 0 0 0 0 0 0 0 0 0 0 0 0 0 0 0 0 0 0 0 0 0 0 -43 0 0 -3 -2 0 -2 0
0 0 0 0 0 0 0 0 0 0 0 0 0 0 0 0 0 0 0 0 0 0 0 0 0 0 0 0 0 0 0 0 0 0 0 0 0 0 0 0 0 0 -107 -4 -5 -4 -1 -1 -3
0 0 0 0 0 0 0 0 0 0 0 0 0 0 0 0 0 0 0 0 0 0 0 0 0 0 0 0 0 0 0 0 0 0 0 0 0 0 0 0 0 0 0 -101 -10 -8 -1 -4 -6
0 0 0 0 0 0 0 0 0 0 0 0 0 0 0 0 0 0 0 0 0 0 0 0 0 0 0 0 0 0 0 0 0 0 0 0 0 0 0 0 0 0 0 0 -1 -13 -10 -4 -7
0 0 0 0 0 0 0 0 0 0 0 0 0 0 0 0 0 0 0 0 0 0 0 0 0 0 0 0 0 0 0 0 0 0 0 0 0 0 0 0 0 0 0 0 0 0 -2 -21 -25
0 0 0 0 0 0 0 0 0 0 0 0 0 0 0 0 0 0 0 0 0 0 0 0 0 0 0 0 0 0 0 0 0 0 0 0 0 0 0 0 0 0 0 0 0 -38 0 -8 -39
0 0 0 0 0 0 0 0 0 0 0 0 0 0 0 0 0 0 0 0 0 0 0 0 0 0 0 0 0 0 0 0 0 0 0 0 0 0 0 0 0 0 0 0 0 0 -1 0 -34
0 0 0 0 0 0 0 0 0 0 0 0 0 0 0 0 0 0 0 0 0 0 0 0 0 0 0 0 0 0 0 0 0 0 0 0 0 0 0 0 0 0 0 0 0 0 0 0 -2
0 0 0 0 0 0 0 0 0 0 0 0 0 0 0 0 0 0 0 0 0 0 0 0 0 0 0 0 0 0 0 0 0 0 0 0 0 0 0 0 0 0 0 0 0 0 0 -10 -3
0 0 0 0 0 0 0 0 0 0 0 0 0 0 0 0 0 0 0 0 0 0 0 0 0 0 0 0 0 0 0 0 0 0 0 0 0 0 0 0 0 0 0 0 0 0 0 0 -40
0 0 0 0 0 0 0 0 0 0 0 0 0 0 0 0 0 0 0 0 0 0 0 0 0 0 0 0 0 0 0 0 0 0 0 0 0 0 0 0 0 0 0 0 0 0 0 0 0
0 0 0 0 0 0 0 0 0 0 0 0 0 0 0 0 0 0 0 0 0 0 0 0 0 0 0 0 0 0 0 0 0 0 0 0 0 0 0 0 0 0 0 0 0 0 0 0 0
0 0 0 0 0 0 0 0 0 0 0 0 0 0 0 0 0 0 0 0 0 0 0 0 0 0 0 0 0 0 0 0 0 0 0 0 0 0 0 0 0 0 0 0 0 0 0 0 0
0 0 0 0 0 0 0 0 0 0 0 0 0 0 0 0 0 0 0 0 0 0 0 0 0 0 0 0 0 0 0 0 0 0 0 0 0 0 0 0 0 0 0 0 0 0 0 0 0
0 0 0 0 0 0 0 0 0 0 0 0 0 0 0 0 0 0 0 0 0 0 0 0 0 0 0 0 0 0 0 0 0 0 0 0 0 0 0 0 0 0 0 0 0 0 0 0 0
0 0 0 0 0 0 0 0 0 0 0 0 0 0 0 0 0 0 0 0 0 0 0 0 0 0 0 0 0 0 0 0 0 0 0 0 0 0 0 0 0 0 0 0 0 0 0 0 0
0 0 0 0 0 0 0 0 0 0 0 0 0 0 0 0 0 0 0 0 0 0 0 0 0 0 0 0 0 0 0 0 0 0 0 0 0 0 0 0 0 0 0 0 0 0 0 0 0
0 0 0 0 0 0 0 0 0 0 0 0 0 0 0 0 0 0 0 0 0 0 0 0 0 0 0 0 0 0 0 0 0 0 0 0 0 0 0 0 0 0 0 0 0 0 0 0 0
0 0 0 0 0 0 0 0 0 0 0 0 0 0 0 0 0 0 0 0 0 0 0 0 0 0 0 0 0 0 0 0 0 0 0 0 0 0 0 0 0 0 0 0 0 0 0 0 0
0 0 0 0 0 0 0 0 0 0 0 0 0 0 0 0 0 0 0 0 0 0 0 0 0 0 0 0 0 0 0 0 0 0 0 0 0 0 0 0 0 0 0 0 0 0 0 0 0
0 0 0 0 0 0 0 0 0 0 0 0 0 0 0 0 0 0 0 0 0 0 0 0 0 0 0 0 0 0 0 0 0 0 0 0 0 0 0 0 0 0 0 0 0 0 0 0 0
0 0 0 0 0 0 0 0 0 0 0 0 0 0 0 0 0 0 0 0 0 0 0 0 0 0 0 0 0 0 0 0 0 0 0 0 0 0 0 0 0 0 0 0 0 0 0 0 0
0 0 0 0 0 0 0 0 0 0 0 0 0 0 0 0 0 0 0 0 0 0 0 0 0 0 0 0 0 0 0 0 0 0 0 0 0 0 0 0 0 0 0 0 0 0 0 0 0
0 0 0 0 0 0 0 0 0 0 0 0 0 0 0 0 0 0 0 0 0 0 0 0 0 0 0 0 0 0 0 0 0 0 0 0 0 0 0 0 0 0 0 0 0 0 0 0 0
0 0 0 0 0 0 0 0 0 0 0 0 0 0 0 0 0 0 0 0 0 0 0 0 0 0 0 0 0 0 0 0 0 0 0 0 0 0 0 0 0 0 0 0 0 0 0 0 0
0 0 0 0 0 0 0 0 0 0 0 0 0 0 0 0 0 0 0 0 0 0 0 0 0 0 0 0 0 0 0 0 0 0 0 0 0 0 0 0 0 0 0 0 0 0 0 0 0
0 0 0 0 0 0 0 0 0 0 0 0 0 0 0 0 0 0 0 0 0 0 0 0 0 0 0 0 0 0 0 0 0 0 0 0 0 0 0 0 0 0 0 0 0 0 0 0 0
0 0 0 0 0 0 0 0 0 0 0 0 0 0 0 0 0 0 0 0 0 0 0 0 0 0 0 0 0 0 0 0 0 0 0 0 0 0 0 0 0 0 0 0 0 0 0 0 0
0 0 0 0 0 0 0 0 0 0 0 0 0 0 0 0 0 0 0 0 0 0 0 0 0 0 0 0 0 0 0 0 0 0 0 0 0 0 0 0 0 0 0 0 0 0 0 0 0
0 0 0 0 0 0 0 0 0 0 0 0 0 0 0 0 0 0 0 0 0 0 0 0 0 0 0 0 0 0 0 0 0 0 0 0 0 0 0 0 0 0 0 0 0 0 0 0 0
Wind_Speed
11 12 14 16 17 18 18 18 18 20 18 17 17 20 19 18 19 17 16 19 21 23 26 30 32 34 35 35 35 35 35 35 34 33 32 32 31 29 29 29 27 26 24 24 26 20 9 4 2
11 12 16 17 17 17 17 18 19 18 17 17 16 19 17 18 19 17 18 20 22 23 26 29 32 34 35 34 35 35 34 34 34 33 33 32 31 30 30 30 29 28 26 26 23 24 10 10 3
12 16 17 18 18 17 16 17 18 16 18 19 18 19 18 17 19 18 17 19 21 24 26 29 31 32 33 35 35 34 34 34 34 33 33 33 33 31 31 31 30 28 27 27 24 24 17 14 6
17 17 19 18 18 19 16 16 17 16 16 18 18 18 19 19 18 17 18 20 22 24 25 28 29 31 31 33 34 34 32 34 34 33 33 33 33 32 31 32 31 29 28 27 25 21 21 18 10
17 17 18 18 18 17 17 17 16 17 16 17 18 18 18 18 18 18 20 20 22 23 24 26 28 29 30 31 33 33 33 34 35 35 33 32 32 32 32 33 32 31 29 28 26 26 23 19 15
16 17 17 18 17 16 16 17 16 15 17 17 18 18 17 15 17 18 19 21 21 22 23 24 25 27 28 29 31 31 32 33 35 35 34 32 32 32 32 33 32 32 32 30 28 26 27 21 20
15 17 16 17 15 15 14 15 16 15 16 16 16 17 16 15 16 17 19 20 20 22 22 22 24 25 27 26 29 30 30 31 34 35 36 34 33 32 33 34 33 33 33 33 30 29 27 25 23
16 16 16 17 15 15 14 15 16 16 15 14 15 15 14 15 15 18 19 18 19 19 19 20 22 24 25 24 27 28 28 30 34 36 36 36 35 34 33 34 34 33 35 34 33 32 30 30 19
16 16 16 15 15 14 14 16 16 14 13 13 13 14 14 14 15 18 18 17 17 16 16 18 20 22 23 23 25 26 27 28 32 35 36 36 38 35 33 34 35 34 34 34 34 33 32 32 35
17 16 15 16 15 15 15 15 15 14 15 13 12 15 15 15 16 18 18 17 17 15 15 16 19 21 22 22 24 25 25 25 27 33 36 37 38 36 32 32 34 35 32 35 33 32 31 27 22
18 16 14 16 16 17 15 14 14 14 15 11 12 15 13 15 16 16 17 17 16 18 16 16 17 19 21 21 23 24 23 23 24 29 35 36 37 36 33 32 32 33 32 34 32 31 29 29 27
15 17 16 16 17 17 16 16 15 8 13 13 12 13 14 15 18 17 17 17 16 15 16 16 15 17 19 20 22 22 23 22 23 26 34 35 35 36 33 33 32 32 33 32 32 31 31 31 28
17 15 17 18 17 17 18 15 13 8 4 3 10 12 14 16 18 19 18 15 15 15 15 15 14 15 16 19 20 22 23 22 22 25 32 34 31 37 34 33 33 32 32 32 34 34 30 31 28
16 15 17 18 19 20 18 20 21 17 12 2 6 9 12 15 18 20 20 18 15 14 14 15 14 15 15 18 19 21 22 23 20 23 29 30 28 38 35 34 33 33 32 32 35 32 34 31 30
15 18 19 20 21 22 23 21 15 15 16 6 7 9 11 13 18 20 21 19 17 15 15 15 15 14 14 16 17 19 22 23 22 20 25 28 25 38 37 35 34 34 34 34 32 32 31 33 30
19 18 25 22 24 20 25 20 20 12 14 6 6 8 10 12 17 19 20 20 18 18 18 17 17 15 14 14 16 19 21 23 20 19 21 30 33 36 38 36 34 34 34 34 33 33 33 35 34
22 24 27 26 23 24 21 16 17 14 11 6 5 8 8 11 16 18 19 19 20 20 19 19 17 17 16 15 16 18 19 22 21 20 22 33 36 31 37 35 35 34 34 33 33 32 32 35 36
24 25 25 26 24 25 14 11 11 8 5 3 4 6 8 9 13 17 19 21 23 23 23 21 19 18 18 17 18 18 20 21 24 22 20 22 35 30 34 35 34 33 33 32 31 34 33 35 36
21 23 26 18 22 35 22 11 9 14 7 3 4 3 6 8 13 16 18 20 23 24 25 24 22 19 19 18 19 18 19 22 25 25 19 17 26 35 19 34 32 31 31 33 32 32 34 32 28
23 28 28 16 20 31 26 8 20 25 19 11 6 3 5 9 11 17 20 21 23 24 25 25 23 21 20 19 20 19 20 23 25 28 26 20 19 33 30 32 33 33 33 33 33 32 33 33 30
27 25 26 24 27 19 28 20 25 24 22 20 15 10 9 9 12 19 24 25 24 25 25 25 23 23 22 21 21 22 23 25 27 29 29 25 18 30 31 26 33 33 33 34 34 32 33 35 35
28 22 26 25 28 23 27 21 23 26 23 21 16 14 14 14 17 22 28 29 29 29 29 28 27 27 26 25 25 25 26 27 27 28 29 30 18 18 34 32 32 35 34 34 34 32 32 31 37
24 28 22 22 21 23 21 24 22 22 25 23 16 15 15 16 20 23 28 31 33 31 31 31 30 31 30 29 27 28 30 30 29 30 29 30 24 16 31 34 32 35 35 34 34 34 33 32 34
26 26 23 20 19 22 19 27 24 22 24 24 21 20 21 21 22 26 31 36 35 32 33 34 34 35 33 32 31 31 34 35 34 31 31 31 30 21 22 36 34 33 35 35 34 34 34 33 34
32 29 27 24 23 22 20 27 18 20 21 20 21 24 26 26 29 31 34 40 40 37 35 35 35 36 35 34 34 35 36 34 32 32 32 37 33 31 23 33 37 35 33 35 34 34 34 34 35
27 25 25 28 27 27 24 19 23 20 18 18 25 27 30 31 33 36 40 43 43 38 34 34 35 37 36 37 36 33 31 30 32 34 35 35 37 32 32 32 36 37 35 31 34 33 34 34 35
24 24 21 24 25 28 21 20 25 19 17 18 27 33 34 37 38 42 45 43 42 37 35 34 35 36 38 37 34 33 33 36 41 41 38 38 37 37 33 33 35 36 38 37 34 36 37 36 37
22 19 24 24 32 34 27 27 26 21 17 20 31 37 40 44 47 45 44 44 42 39 36 35 34 37 38 36 35 34 33 35 37 40 40 38 39 39 36 35 32 34 35 35 35 35 37 38 37
23 21 20 24 23 29 34 29 24 17 18 24 32 42 46 49 48 46 46 43 43 42 38 36 37 39 39 37 37 34 33 34 34 39 39 39 39 38 39 34 29 24 33 35 37 37 36 37 38
18 18 21 28 28 24 30 35 23 20 17 29 40 43 46 46 45 44 44 46 49 46 40 37 39 40 38 38 37 36 35 33 35 37 38 39 39 37 37 37 34 27 23 31 37 38 39 39 40
Wind_Direction
235 220 166 59 26 25 42 38 44 30 40 45 45 38 35 36 28 22 33 20 14 12 7 3 1 358 354 352 353 345 338 331 325 318 311 311 307 305 304 305 304 305 300 287 264 270 287 305 348
216 189 39 19 18 23 25 24 26 37 46 43 43 35 38 32 26 29 18 17 14 15 12 7 2 359 355 357 357 355 351 336 325 318 312 305 306 303 300 299 300 297 298 290 276 261 275 271 282
211 104 7 360 6 18 29 21 33 46 39 35 38 35 34 28 28 23 26 17 18 13 10 6 1 3 2 357 2 8 0 352 332 321 313 309 300 301 296 296 294 296 294 292 276 266 267 258 253
78 42 25 4 8 2 22 36 30 45 40 38 37 33 28 25 20 25 20 13 11 9 10 7 8 4 8 4 7 9 12 357 343 329 317 310 307 294 296 290 291 291 293 291 281 275 262 253 247
42 38 6 9 10 22 30 30 37 33 39 34 31 27 22 20 26 21 13 12 9 9 9 7 6 6 5 9 11 11 11 3 349 339 327 315 307 302 291 289 286 286 287 286 283 271 264 256 244
22 22 13 11 22 26 29 30 36 38 29 27 25 23 24 31 22 18 13 8 10 9 9 13 11 8 10 9 11 11 12 7 349 343 337 326 312 304 296 288 286 281 281 281 281 276 267 257 243
20 14 12 16 26 27 31 36 30 33 26 24 28 20 25 24 24 18 12 9 9 7 9 12 12 10 9 12 10 11 11 9 350 339 336 331 319 310 297 291 286 277 278 277 276 274 274 257 243
11 19 14 12 25 23 32 29 29 26 24 34 28 28 23 23 22 12 10 11 10 10 11 11 10 10 9 12 9 9 11 7 351 339 334 329 325 313 302 292 283 281 276 275 274 270 270 265 226
5 6 12 20 27 34 37 23 27 36 29 29 28 26 28 32 24 12 8 8 7 9 11 11 8 7 8 7 6 6 7 4 353 342 332 330 331 316 304 292 283 278 275 275 274 274 268 265 250
352 1 11 14 25 27 30 27 22 25 21 21 30 24 31 26 18 10 8 6 6 5 8 10 6 5 5 4 2 2 4 4 357 343 331 332 335 318 302 294 286 274 277 272 272 271 269 272 269
346 355 15 8 14 17 25 23 22 19 15 26 36 32 29 20 15 11 8 7 6 6 7 7 4 3 2 1 1 360 1 1 357 348 332 332 339 315 301 294 285 277 273 270 270 269 273 266 255
356 347 359 8 5 15 16 14 11 14 18 31 35 31 24 15 10 8 6 6 8 5 1 2 4 3 1 360 358 358 359 360 355 348 332 332 339 315 297 289 285 282 273 271 270 268 265 260 255
349 357 356 3 6 11 9 9 9 355 7 18 25 29 22 16 11 9 8 8 9 5 4 3 3 1 0 358 357 356 357 359 357 349 333 330 338 312 296 288 284 278 272 268 269 264 268 267 261
357 1 358 357 358 360 5 2 4 15 13 126 39 26 20 16 12 10 9 9 9 7 2 1 1 359 359 356 356 355 355 357 358 352 337 333 338 310 295 286 281 275 271 270 262 264 262 264 258
14 353 351 350 353 355 0 0 14 15 20 57 38 24 20 16 11 10 11 11 11 9 4 2 360 360 357 354 355 355 354 356 356 354 345 335 338 308 294 285 280 276 274 273 269 262 261 260 262
355 353 334 348 351 5 358 357 6 19 14 24 22 16 15 18 12 12 14 15 15 11 7 4 3 1 357 355 353 352 352 352 353 352 351 333 329 316 291 283 277 276 273 270 271 268 265 260 258
344 338 334 345 354 356 3 354 358 10 6 13 13 7 11 14 12 13 15 18 16 12 8 3 0 356 354 351 349 349 349 347 350 355 353 334 322 327 291 284 277 275 272 269 266 263 261 257 254
340 340 345 349 353 352 348 308 327 314 329 347 360 359 8 12 12 12 17 16 13 10 6 2 358 354 351 350 349 347 346 346 348 351 348 345 322 325 298 284 279 273 270 272 272 265 265 259 252
357 352 347 2 360 337 359 315 319 10 14 0 324 351 9 10 8 9 8 9 6 3 1 359 357 352 349 346 344 341 342 345 343 345 347 346 335 307 329 283 281 274 271 271 271 270 264 260 258
354 343 343 7 4 349 358 333 17 14 22 27 30 39 18 17 12 1 357 357 355 355 354 354 352 349 346 343 343 341 339 340 340 341 346 351 345 309 306 288 278 275 272 269 268 269 264 258 258
349 354 355 354 354 8 357 10 8 14 21 23 25 34 29 20 7 360 353 350 350 349 349 349 347 345 342 338 338 339 339 338 337 338 340 346 347 318 301 306 278 276 273 269 267 269 262 257 255
347 1 354 353 353 358 360 2 6 6 12 20 26 28 24 16 2 357 350 349 348 347 348 348 347 344 343 341 336 333 333 332 334 335 335 336 343 337 294 291 287 274 272 269 267 266 266 264 252
354 350 354 355 358 358 3 0 4 7 7 15 25 23 16 4 355 355 351 346 344 345 345 344 344 342 340 338 335 332 330 330 330 330 330 330 335 336 306 286 285 274 270 269 267 263 262 262 259
354 354 358 2 4 357 4 357 357 6 5 13 19 18 8 1 359 353 348 344 342 341 339 340 340 339 337 335 333 330 328 327 327 327 327 326 325 331 324 285 280 279 271 266 266 264 261 262 260
351 354 353 355 355 353 358 351 359 1 3 12 17 14 6 1 354 349 346 343 342 338 337 338 338 339 338 335 330 327 325 325 324 323 321 316 319 318 323 298 277 273 273 267 266 264 262 260 258
354 359 354 346 347 343 348 354 357 1 14 23 15 9 1 358 353 349 345 342 342 342 340 339 338 338 338 334 330 329 326 324 322 318 314 311 307 312 308 304 281 273 270 271 264 263 261 261 259
355 353 359 348 348 343 349 350 347 354 2 6 3 359 356 352 350 346 344 345 345 345 342 340 338 338 336 335 334 330 326 320 312 307 308 304 303 302 306 299 285 273 268 266 266 262 261 261 259
355 0 349 351 340 338 340 339 342 347 352 351 350 350 348 345 344 344 345 345 346 344 341 339 338 336 336 336 333 331 329 323 316 308 305 303 299 297 298 291 289 277 272 268 265 265 263 261 260
348 349 353 348 344 337 335 338 349 352 342 343 345 343 342 341 342 343 343 344 346 344 341 340 339 336 336 336 333 332 329 325 322 311 307 302 298 295 290 291 294 296 278 271 266 264 265 261 259
353 349 344 337 337 334 331 327 341 342 349 345 339 340 339 340 341 342 343 342 343 343 342 340 339 337 337 336 334 332 330 327 322 314 308 303 297 295 291 287 287 293 292 279 268 265 262 261 258